Torna al catalogo

STARLINK-4090

AttivoComunicazioniVLEO
NORAD 53165·PAYLOAD·🇺🇸 United States

Lanciato Jul 17, 2022 da Cape Canaveral Space Force Station

Loading…

Prossimi Passaggi (prossime 24 ore)

TLE

AggiornatoSource: CelesTrak SupGP

Epoca: Sep 14, 2026, 22:05 UTC

1 53165C 22083AK  26257.92062500 -.00001848  00000+0 -52844-4 0  2577
2 53165  53.1603  29.7929 0001148  73.5920 215.5465 15.35415191    12

Traccia STARLINK-4090 in tempo reale con AllMySat

Download on the App Store